{"data":{"norad_id":68505,"epoch":"2026-09-20T03:54:33.379776Z","epoch_age_seconds":95604,"freshness":"FRESH","line1":"1 68505U 26067CT  26263.16288634  .00003279  00000+0  33099-3 0  9999","line2":"2 68505  97.7704 219.8521 0007006  88.5534 271.6487 14.91743714 25872","mean_motion":14.91743714,"eccentricity":0.0007006,"inclination_deg":97.7704,"raan_deg":219.8521,"arg_perigee_deg":88.5534,"mean_anomaly_deg":271.6487,"bstar":0.00033099,"rev_number":2587,"period_min":96.531326828169,"perigee_km":587.61471156681,"apogee_km":597.38196580337,"semimajor_km":6970.6353386851,"source":"CELESTRAK","updated_at":"2026-09-20T09:00:24.263202Z"}}